This demonstration page uses our WeatherBlox Daily Observations layout. Learn more.

Left ArrowRight Arrow

41.86663, -103.66717

Hourly Observations for October 25, 2020

Temp ( °F °C ) Dew Point ( °F °C ) Humidity (%) Winds ( mph kmh ) Pressure ( in mb ) Visibility ( mi km ) Precip ( " mm )
12:53 am 00:53 Mostly Cloudy with Light Snow 19 -7.2 16 -8.9 88 88 NNW 15 24 30.28 1026 1 1 0.04 1.02
1:37 am 01:37 Mostly Cloudy with Light Snow 18 -7.8 15 -9.4 88 88 NNW 13 20 30.42 1030 1 2 0.05 1.27
1:53 am 01:53 Mostly Cloudy with Light Snow 18 -7.8 15 -9.4 88 88 N 16 26 30.29 1026 1 2 0.06 1.52
2:36 am 02:36 Cloudy with Light Snow 18 -7.8 14 -10 84 84 NNW 8 13 30.45 1031 1 2 0.02 0.51
2:51 am 02:51 Cloudy with Light Snow 18 -8 12 -11 79 79 N 8 13 30.45 1031 2 3 0.02 0.51
2:53 am 02:53 Cloudy with Light Snow 18 -7.8 13 -10.6 81 81 N 8 13 30.31 1026 2 3 0.02 0.51
3:06 am 03:06 Cloudy with Light Snow 18 -7.8 13 -10.6 81 81 N 7 11 30.44 1031 3 5 0.02 0.51
3:24 am 03:24 Cloudy with Light Snow 18 -8 12 -11 79 79 N 10 17 30.47 1032 3 5 0.00 0.00
3:37 am 03:37 Cloudy with Light Snow 17 -8.3 13 -10.6 84 84 N 12 19 30.46 1032 2 3 0.03 0.76
3:45 am 03:45 Cloudy with Light Snow 17 -8.3 13 -10.6 84 84 N 10 17 30.46 1032 2 2 0.03 0.76
3:53 am 03:53 Cloudy with Light Snow 17 -8.3 13 -10.6 84 84 N 13 20 30.33 1027 2 2 0.03 0.76
4:22 am 04:22 Cloudy with Light Snow 17 -8.3 13 -10.6 84 84 N 10 17 30.47 1032 1 2 0.02 0.51
4:35 am 04:35 Mostly Cloudy with Mist and Fog 17 -8.3 13 -10.6 84 84 N 13 20 30.48 1032 1 1 0.03 0.76
4:44 am 04:44 Cloudy with Mist and Fog 17 -8.3 13 -10.6 84 84 NNW 9 15 30.49 1033 1 2 0.03 0.76
4:53 am 04:53 Cloudy with Mist and Fog 16 -8.9 13 -10.6 88 88 N 9 15 30.36 1028 1 2 0.04 1.02
5:53 am 05:53 Cloudy with Mist and Fog 16 -8.9 12 -11.1 84 84 N 13 20 30.39 1029 2 2 0.03 0.76
6:24 am 06:24 Mostly Cloudy with Mist and Fog 16 -8.9 13 -10.6 88 88 N 10 17 30.54 1034 1 1 0.00 0.00
6:32 am 06:32 Cloudy with Mist and Fog 16 -8.9 13 -10.6 88 88 N 9 15 30.54 1034 1 2 0.00 0.00
6:53 am 06:53 Cloudy with Mist and Fog 16 -8.9 12 -11.1 84 84 N 12 19 30.40 1030 1 2 0.00 0.00
7:53 am 07:53 Cloudy with Mist and Fog 16 -8.9 12 -11.1 84 84 NNE 12 19 30.42 1030 2 2 0.00 0.00
8:25 am 08:25 Mostly Cloudy with Mist and Fog 16 -8.9 12 -11.1 84 84 N 8 13 30.56 1035 1 1 0.00 0.00
8:40 am 08:40 Mostly Cloudy with Mist and Fog 16 -9 12 -11 86 86 N 10 17 30.56 1035 1 2 0.00 0.00
8:53 am 08:53 Mostly Cloudy with Mist and Fog 16 -8.9 12 -11.1 84 84 NNE 12 19 30.44 1031 1 2 0.00 0.00
9:13 am 09:13 Mostly Cloudy with Mist and Fog 16 -8.9 12 -11.1 84 84 NNE 10 17 30.57 1035 1 1 0.00 0.00
9:51 am 09:51 Mostly Cloudy with Haze 16 -9 10 -12 79 79 NNE 10 17 30.59 1036 1 2 0.00 0.00
9:53 am 09:53 Mostly Cloudy with Mist and Fog 16 -8.9 12 -11.1 84 84 N 12 19 30.48 1032 1 2 0.00 0.00
10:28 am 10:28 Mostly Cloudy with Mist and Fog 16 -9 12 -11 86 86 NNE 14 22 30.59 1036 1 1 0.00 0.00
10:35 am 10:35 Mostly Cloudy with Haze 16 -8.9 11 -11.7 80 80 NNE 13 20 30.58 1036 1 2 0.00 0.00
10:53 am 10:53 Mostly Cloudy with Haze 17 -8.3 12 -11.1 80 80 NNE 13 20 30.48 1032 1 2 0.00 0.00
10:59 am 10:59 Mostly Cloudy with Haze 16 -8.9 11 -11.7 80 80 NNE 14 22 30.58 1036 1 1 0.00 0.00
11:08 am 11:08 Mostly Cloudy with Haze 17 -8.3 12 -11.1 80 80 NNE 12 19 30.58 1036 1 2 0.00 0.00
11:53 am 11:53 Cloudy with Haze 17 -8.3 11 -11.7 77 77 NNE 8 13 30.48 1032 1 2 0.00 0.00
12:53 pm 12:53 Mostly Cloudy with Haze 16 -8.9 11 -11.7 80 80 N 14 22 30.49 1033 1 2 0.00 0.00
12:58 pm 12:58 Mostly Cloudy with Haze 16 -9 10 -12 79 79 NNE 14 22 30.59 1036 1 1 0.00 0.00
1:53 pm 13:53 Mostly Cloudy with Haze 15 -9.4 10 -12.2 80 80 NNE 12 19 30.50 1033 1 1 0.00 0.00
2:53 pm 14:53 Mostly Cloudy with Freezing Fog 14 -10 10 -12.2 84 84 NNE 13 20 30.49 1033 1 1 0.00 0.00
3:24 pm 15:24 Mostly Cloudy with Haze 14 -10 9 -13 79 79 N 10 17 30.62 1037 1 2 0.00 0.00
3:48 pm 15:48 Mostly Cloudy with Haze 14 -10 9 -13 79 79 NNE 14 22 30.61 1037 1 1 0.00 0.00
3:53 pm 15:53 Mostly Cloudy with Haze 14 -10 9 -12.8 80 80 NNE 13 20 30.50 1033 1 1 0.00 0.00
4:01 pm 16:01 Mostly Cloudy with Freezing Fog 14 -10 10 -12.2 84 84 NNE 12 19 30.61 1037 1 1 0.00 0.00
4:30 pm 16:30 Mostly Cloudy with Haze 14 -10 9 -13 79 79 NNE 12 19 30.62 1037 1 2 0.00 0.00
4:50 pm 16:50 Mostly Cloudy with Mist and Fog 12 -11 9 -13 85 85 N 9 15 30.66 1038 1 1 0.00 0.00
4:53 pm 16:53 Mostly Cloudy with Mist and Fog 13 -10.6 9 -12.8 84 84 N 9 15 30.54 1034 1 1 0.00 0.00
5:42 pm 17:42 Cloudy with Mist and Fog 12 -11 9 -13 85 85 N 9 15 30.66 1038 2 2 0.00 0.00
5:53 pm 17:53 Cloudy with Mist and Fog 13 -10.6 9 -12.8 84 84 N 9 15 30.55 1034 2 3 0.00 0.00
6:09 pm 18:09 Cloudy with Mist and Fog 13 -10.6 9 -12.8 84 84 N 9 15 30.66 1038 3 5 0.00 0.00
6:43 pm 18:43 Cloudy with Mist and Fog 13 -10.6 9 -12.8 84 84 N 6 9 30.65 1038 2 3 0.00 0.00
6:53 pm 18:53 Cloudy with Haze 13 -10.6 8 -13.3 81 81 N 9 15 30.55 1035 2 3 0.00 0.00
7:36 pm 19:36 Cloudy with Haze 12 -11.1 7 -13.9 80 80 N 12 19 30.69 1039 3 4 0.00 0.00
7:50 pm 19:50 Cloudy with Haze 10 -12 7 -14 85 85 undefined N/A 30.72 1040 3 5 0.00 0.00
7:53 pm 19:53 Cloudy with Haze 11 -11.7 6 -14.4 81 81 undefined N/A 30.59 1036 3 5 0.00 0.00
8:53 pm 20:53 Cloudy with Haze 11 -11.7 6 -14.4 81 81 N 5 7 30.58 1036 4 6 0.00 0.00
9:53 pm 21:53 Cloudy with Haze 11 -11.7 6 -14.4 81 81 Calm 30.59 1036 6 10 0.00 0.00
10:53 pm 22:53 Cloudy 10 -12.2 7 -13.9 87 87 Calm 30.61 1037 8 13 0.00 0.00
11:53 pm 23:53 Partly Cloudy 9 -12.8 6 -14.4 88 88 Calm 30.61 1037 10 16 0.00 0.00

Powered by AerisWeather